247  
ASUS46 KPDT 071925  
RWRPDT  
PENDLETON REGIONAL WEATHER ROUNDUP  
NATIONAL WEATHER SERVICE PENDLETON OREGON  
1200 PM PDT TUE JUL 7 2020  
 
NOTE: FAIR INDICATES FEW OR NO CLOUDS BELOW 12,000 FEET WITH NO  
SIGNIFICANT WEATHER AND/OR S TO VISIBILITY
.  
 
# INDICATES UNOFFICIAL STATION AND DATA  
 
WAZ520-072010-  
EAST SLOPES OF WASHINGTON CASCADES  
 
CITY SKY/WX TMP DP RH WIND PRES REMARKS
 

 
 
WAZ521-072010-  
SIMCOE HIGHLANDS  
 
CITY SKY/WX TMP DP RH WIND PRES REMARKS
 

 
 
WAZ026-072010-  
KITTITAS VALLEY  
 
CITY SKY/WX TMP DP RH WIND PRES REMARKS
 
ELLENSBURG AP FAIR 67 43 42 NW29G38 29.99R  

 
 
WAZ027-072010-  
YAKIMA VALLEY  
 
CITY SKY/WX TMP DP RH WIND PRES REMARKS
 
SUNNYSIDE AP FAIR 73 45 37 W5 29.96S  
YAKIMA AIRPORT MOSUNNY 74 43 33 W18 29.95S  
YAKIMA-VAGABOND FAIR 72 38 29 W9 29.94F  

 
 
WAZ028-072010-  
LOWER COLUMBIA BASIN...WASHINGTON  
 
CITY SKY/WX TMP DP RH WIND PRES REMARKS
 
HANFORD MOSUNNY 77 40 26 W10 29.88S  
PASCO FAIR 78 43 29 SW13G24 29.95F  
PROSSER AWOS N/A 73 45 37 CALM 29.98F  
RICHLAND AWOS FAIR 78 44 30 S8 29.94F  

 
 
WAZ029-072010-  
FOOTHILLS OF THE BLUES...WASHINGTON  
 
CITY SKY/WX TMP DP RH WIND PRES REMARKS
 
WALLA WALLA AP PTCLDY 71 41 34 S17G29 29.99F  

 
 
WAZ030-072010-  
BLUE MOUNTAINS...WASHINGTON  
 
CITY SKY/WX TMP DP RH WIND PRES REMARKS
 

 
 
ORZ009-041-WAZ024-072010-  
COLUMBIA RIVER GORGE  
 
CITY SKY/WX TMP DP RH WIND PRES REMARKS
 
HOOD RIVER AP CLOUDY 63 50 62 W10 30.08R  
THE DALLES AP MOSUNNY 71 50 47 NW22G28 30.03F  
 

 
 
ORZ510-072010-  
NORTH CENTRAL OREGON  
 
CITY SKY/WX TMP DP RH WIND PRES REMARKS
 

 
 
ORZ511-072010-  
CENTRAL OREGON  
 
CITY SKY/WX TMP DP RH WIND PRES REMARKS
 
BEND AIRPORT PTCLDY 68 39 35 W6 30.11S  
MADRAS AIRPORT MOCLDY 64 41 43 NW10 30.09F  
PRINEVILLE AP FAIR 66 37 34 W10 30.08F  
REDMOND AIRPORT FAIR 67 40 37 N13 30.09S  
 

 
 
 
ORZ509-072010-  
EAST SLOPES OF OREGON CASCADES  
 
CITY SKY/WX TMP DP RH WIND PRES REMARKS
 
SUNRIVER AWOS CLOUDY 61 41 48 SE9 30.14F  
 

 
 
ORZ044-072010-  
LOWER COLUMBIA BASIN...OREGON  
 
CITY SKY/WX TMP DP RH WIND PRES REMARKS
 
HERMISTON FAIR 74 44 34 W20G28 29.97F  

 
 
ORZ507-072010-  
NORTHERN FOOTHILLS OF THE BLUES  
 
CITY SKY/WX TMP DP RH WIND PRES REMARKS
 
PENDLETON AIRPT FAIR 72 41 33 W15G26 30.00F  
 

 
 
ORZ508-072010-  
SOUTHERN FOOTHILLS OF THE BLUES  
 
CITY SKY/WX TMP DP RH WIND PRES REMARKS
 
 

 
 
ORZ502-503-072010-  
BLUE MOUNTAINS  
 
CITY SKY/WX TMP DP RH WIND PRES REMARKS
 
MEACHAM PTCLDY 61 40 46 MISG 30.06R  

 
 
ORZ505-072010-  
JOHN DAY BASIN  
 
CITY SKY/WX TMP DP RH WIND PRES REMARKS
 
JOHN DAY FAIR 66 41 40 W9 30.07F  

 
 
ORZ506-072010-  
OCHOCO AND JOHN DAY HIGHLANDS  
 
CITY SKY/WX TMP DP RH WIND PRES REMARKS
 

 
 
ORZ049-072010-  
GRANDE RONDE VALLEY  
 
CITY SKY/WX TMP DP RH WIND PRES REMARKS
 
LA GRANDE FAIR 67 42 40 W10 30.03S  

 
 
ORZ050-072010-  
WALLOWA COUNTY  
 
CITY SKY/WX TMP DP RH WIND PRES REMARKS
 
 

 
 
CLICK HERE TO GO TO PREVIOUS BULLETINS.

The Nexlab OR Page
The Nexlab WA Page Main Text Page